{"data":{"norad_id":62978,"intl_designator":"2025-030H","name":"HULIANWANG DIGUI-18","alt_names":[],"object_type":"PAYLOAD","status":"ACTIVE","operator":null,"country":"PRC","launch_date":"2025-02-11","launch_site_code":"WSC","launch_vehicle":null,"mission":null,"orbit_class":"UNKNOWN","rcs_meters":null,"size_class":null,"mass_kg":null,"dimensions":null,"purposes":[],"wikipedia_slug":null,"has_3d_model":false,"image_url":null,"decayed_at":null,"tle_current":{"epoch":"2026-05-25T00:31:02.785728Z","epoch_age_seconds":66556,"freshness":"FRESH","line1":"1 62978U 25030H   26145.02156002 -.00000097  00000+0  59182-4 0  9991","line2":"2 62978  50.0076 318.6110 0001274  92.2854 267.8164 13.29324317 62788","mean_motion":13.29324317,"eccentricity":0.0001274,"inclination_deg":50.0076,"raan_deg":318.611,"arg_perigee_deg":92.2854,"mean_anomaly_deg":267.8164,"bstar":5.9182e-5,"rev_number":6278,"period_min":108.32570965449,"perigee_km":1148.353928179,"apogee_km":1150.27192242,"semimajor_km":7527.4499252995,"source":"CELESTRAK","updated_at":"2026-05-25T13:38:03.397145Z"}}}